When you browse on this site, cookies collect data to enhance your experience and personalize the content and advertising you see.
Visit our Privacy Policy to learn more. By continuing to use the site, you agree to this use of cookies and data.
  • In Czech Republic
  • List of Countries
  • For 7 days
  • Water Temperature
  • Weather Map
  • Weather Widgets
  • user-avatar
    Login

    Hourly Weather Ondjiwa

    Today, 15 September, Sunday

    Time Temperature Precipitation Wind Pressure Humidity
    00:00 +21°C° 0 mm 2 mps 667 mmHg 15%
    01:00 +21°C° 0 mm 2 mps 667 mmHg 17%
    02:00 +20°C° 0 mm 2 mps 667 mmHg 17%
    03:00 +19°C° 0 mm 2 mps 667 mmHg 18%
    04:00 +18°C° 0 mm 2 mps 666 mmHg 19%
    05:00 +19°C° 0 mm 2 mps 667 mmHg 18%
    06:00 +19°C° 0 mm 2 mps 668 mmHg 17%
    07:00 +20°C° 0 mm 2 mps 668 mmHg 16%
    08:00 +25°C° 0 mm 2 mps 669 mmHg 13%
    09:00 +29°C° 0 mm 3 mps 670 mmHg 10%
    10:00 +34°C° 0 mm 3 mps 670 mmHg 6%
    11:00 +36°C° 0 mm 3 mps 670 mmHg 6%
    12:00 +37°C° 0 mm 3 mps 669 mmHg 5%
    13:00 +39°C° 0 mm 3 mps 668 mmHg 4%
    14:00 +39°C° 0 mm 3 mps 668 mmHg 4%
    15:00 +39°C° 0 mm 2 mps 667 mmHg 4%
    16:00 +39°C° 0 mm 2 mps 667 mmHg 4%
    17:00 +36°C° 0 mm 2 mps 666 mmHg 5%
    18:00 +31°C° 0 mm 2 mps 666 mmHg 6%
    19:00 +28°C° 0 mm 2 mps 665 mmHg 7%
    20:00 +26°C° 0 mm 2 mps 666 mmHg 8%
    21:00 +25°C° 0 mm 2 mps 666 mmHg 8%
    22:00 +24°C° 0 mm 2 mps 666 mmHg 9%
    23:00 +23°C° 0 mm 2 mps 666 mmHg 9%

    Tomorrow, 16 September, Monday

    Time Temperature Precipitation Wind Pressure Humidity
    00:00 +21°C° 0 mm 2 mps 666 mmHg 10%
    01:00 +20°C° 0 mm 2 mps 665 mmHg 10%
    02:00 +19°C° 0 mm 2 mps 665 mmHg 11%
    03:00 +19°C° 0 mm 1 mps 665 mmHg 12%
    04:00 +18°C° 0 mm 1 mps 665 mmHg 12%
    05:00 +19°C° 0 mm 1 mps 666 mmHg 12%
    06:00 +20°C° 0 mm 1 mps 667 mmHg 11%
    07:00 +20°C° 0 mm 2 mps 668 mmHg 10%
    08:00 +25°C° 0 mm 3 mps 668 mmHg 10%
    09:00 +29°C° 0 mm 4 mps 669 mmHg 9%
    10:00 +34°C° 0 mm 6 mps 669 mmHg 9%
    11:00 +36°C° 0 mm 5 mps 669 mmHg 8%
    12:00 +39°C° 0 mm 5 mps 669 mmHg 8%
    13:00 +41°C° 0 mm 5 mps 668 mmHg 7%
    14:00 +41°C° 0 mm 4 mps 668 mmHg 7%
    15:00 +41°C° 0 mm 4 mps 667 mmHg 7%
    16:00 +40°C° 0 mm 3 mps 666 mmHg 6%
    17:00 +36°C° 0 mm 2 mps 666 mmHg 8%
    18:00 +32°C° 0 mm 2 mps 666 mmHg 10%
    19:00 +29°C° 0 mm 1 mps 665 mmHg 11%
    20:00 +28°C° 0 mm 1 mps 666 mmHg 12%
    21:00 +27°C° 0 mm 2 mps 666 mmHg 13%
    22:00 +25°C° 0 mm 3 mps 666 mmHg 14%
    23:00 +24°C° 0 mm 3 mps 666 mmHg 15%

    Day after tomorrow, 17 September, Tuesday

    Time Temperature Precipitation Wind Pressure Humidity
    00:00 +22°C° 0 mm 3 mps 666 mmHg 16%
    01:00 +21°C° 0 mm 2 mps 666 mmHg 18%
    02:00 +21°C° 0 mm 2 mps 666 mmHg 19%
    03:00 +20°C° 0 mm 2 mps 665 mmHg 21%
    04:00 +19°C° 0 mm 2 mps 665 mmHg 22%
    05:00 +19°C° 0 mm 2 mps 666 mmHg 22%
    06:00 +20°C° 0 mm 2 mps 667 mmHg 21%
    07:00 +21°C° 0 mm 2 mps 667 mmHg 21%
    08:00 +26°C° 0 mm 3 mps 668 mmHg 17%
    09:00 +30°C° 0 mm 5 mps 669 mmHg 13%
    10:00 +35°C° 0 mm 6 mps 669 mmHg 8%
    11:00 +38°C° 0 mm 6 mps 669 mmHg 8%
    12:00 +39°C° 0 mm 5 mps 668 mmHg 7%
    13:00 +41°C° 0 mm 5 mps 668 mmHg 6%
    14:00 +41°C° 0 mm 4 mps 667 mmHg 6%
    15:00 +40°C° 0 mm 3 mps 667 mmHg 6%
    16:00 +40°C° 0 mm 2 mps 666 mmHg 5%
    17:00 +36°C° 0 mm 2 mps 666 mmHg 7%
    18:00 +32°C° 0 mm 2 mps 666 mmHg 8%
    19:00 +28°C° 0 mm 2 mps 665 mmHg 10%
    20:00 +27°C° 0 mm 2 mps 665 mmHg 11%
    21:00 +26°C° 0 mm 2 mps 666 mmHg 12%
    22:00 +24°C° 0 mm 2 mps 666 mmHg 12%
    23:00 +24°C° 0 mm 2 mps 666 mmHg 12%

    18 September, Wednesday

    Time Temperature Precipitation Wind Pressure Humidity
    00:00 +22°C° 0 mm 3 mps 666 mmHg 12%
    01:00 +21°C° 0 mm 3 mps 666 mmHg 11%
    02:00 +20°C° 0 mm 3 mps 666 mmHg 12%
    03:00 +20°C° 0 mm 2 mps 666 mmHg 13%
    04:00 +19°C° 0 mm 2 mps 666 mmHg 13%
    05:00 +20°C° 0 mm 1 mps 666 mmHg 13%
    06:00 +20°C° 0 mm 1 mps 667 mmHg 13%
    07:00 +19°C° 0 mm 0 mps 667 mmHg 13%
    08:00 +25°C° 0 mm 2 mps 668 mmHg 11%
    09:00 +29°C° 0 mm 3 mps 669 mmHg 9%
    10:00 +35°C° 0 mm 5 mps 670 mmHg 7%
    11:00 +36°C° 0 mm 4 mps 669 mmHg 7%
    12:00 +38°C° 0 mm 4 mps 668 mmHg 6%
    13:00 +40°C° 0 mm 3 mps 668 mmHg 5%
    14:00 +40°C° 0 mm 3 mps 667 mmHg 5%
    15:00 +40°C° 0 mm 3 mps 667 mmHg 5%
    16:00 +40°C° 0 mm 2 mps 666 mmHg 5%
    17:00 +36°C° 0 mm 2 mps 666 mmHg 6%
    18:00 +32°C° 0 mm 2 mps 665 mmHg 8%
    19:00 +28°C° 0 mm 1 mps 665 mmHg 9%
    20:00 +27°C° 0 mm 1 mps 665 mmHg 11%
    21:00 +25°C° 0 mm 1 mps 666 mmHg 12%
    22:00 +24°C° 0 mm 2 mps 666 mmHg 13%
    23:00 +23°C° 0 mm 1 mps 666 mmHg 14%

    19 September, Thursday

    Time Temperature Precipitation Wind Pressure Humidity
    00:00 +22°C° 0 mm 1 mps 665 mmHg 15%
    01:00 +21°C° 0 mm 1 mps 665 mmHg 16%
    02:00 +20°C° 0 mm 1 mps 665 mmHg 17%
    03:00 +19°C° 0 mm 1 mps 665 mmHg 18%
    04:00 +19°C° 0 mm 1 mps 666 mmHg 18%
    05:00 +20°C° 0 mm 1 mps 666 mmHg 18%
    06:00 +21°C° 0 mm 1 mps 667 mmHg 17%
    07:00 +21°C° 0 mm 2 mps 668 mmHg 16%
    08:00 +26°C° 0 mm 3 mps 668 mmHg 13%
    09:00 +30°C° 0 mm 4 mps 669 mmHg 11%
    10:00 +35°C° 0 mm 4 mps 669 mmHg 8%
    11:00 +37°C° 0 mm 4 mps 669 mmHg 7%
    12:00 +38°C° 0 mm 3 mps 668 mmHg 6%
    13:00 +40°C° 0 mm 3 mps 667 mmHg 6%
    14:00 +40°C° 0 mm 2 mps 667 mmHg 5%
    15:00 +40°C° 0 mm 2 mps 666 mmHg 5%
    16:00 +40°C° 0 mm 1 mps 666 mmHg 5%
    17:00 +37°C° 0 mm 2 mps 665 mmHg 7%
    18:00 +32°C° 0 mm 2 mps 665 mmHg 8%
    19:00 +29°C° 0 mm 3 mps 665 mmHg 9%
    20:00 +28°C° 0 mm 3 mps 665 mmHg 10%
    21:00 +27°C° 0 mm 3 mps 666 mmHg 11%
    22:00 +26°C° 0 mm 3 mps 666 mmHg 11%
    23:00 +24°C° 0 mm 3 mps 666 mmHg 16%

    20 September, Friday

    Time Temperature Precipitation Wind Pressure Humidity
    00:00 +22°C° 0 mm 3 mps 666 mmHg 22%
    01:00 +20°C° 0 mm 3 mps 665 mmHg 27%
    02:00 +19°C° 0 mm 3 mps 665 mmHg 31%
    03:00 +18°C° 0 mm 2 mps 665 mmHg 35%
    04:00 +17°C° 0 mm 2 mps 665 mmHg 39%
    05:00 +18°C° 0 mm 2 mps 666 mmHg 37%
    06:00 +18°C° 0 mm 2 mps 666 mmHg 34%
    07:00 +19°C° 0 mm 2 mps 667 mmHg 31%
    08:00 +24°C° 0 mm 2 mps 668 mmHg 24%
    09:00 +29°C° 0 mm 3 mps 668 mmHg 17%
    10:00 +34°C° 0 mm 3 mps 669 mmHg 9%
    11:00 +36°C° 0 mm 3 mps 668 mmHg 8%
    12:00 +38°C° 0 mm 3 mps 668 mmHg 7%
    13:00 +40°C° 0 mm 3 mps 667 mmHg 6%
    14:00 +40°C° 0 mm 3 mps 667 mmHg 6%
    15:00 +40°C° 0 mm 2 mps 666 mmHg 6%
    16:00 +40°C° 0 mm 1 mps 665 mmHg 5%
    17:00 +37°C° 0 mm 2 mps 665 mmHg 7%
    18:00 +34°C° 0 mm 2 mps 665 mmHg 8%
    19:00 +29°C° 0 mm 3 mps 664 mmHg 9%
    20:00 +28°C° 0 mm 3 mps 665 mmHg 10%
    21:00 +27°C° 0 mm 3 mps 665 mmHg 11%
    22:00 +25°C° 0 mm 3 mps 665 mmHg 12%
    23:00 +24°C° 0 mm 3 mps 665 mmHg 19%
    Show more